Location: Caltech
(34.1382°N, 118.1253°W)
Time: 12:46:13
(UTC-07:00)

Oscar 11 - Visible Passes

Search period start: 28 July 2015 00:00
Search period end: 07 August 2015 00:00
Orbit: 616 x 626 km, 97.8° (Epoch: 28 July)

Date Brightness Start Highest point End Pass type
(mag) Time Alt. Az. Time Alt. Az. Time Alt. Az.
28 Jul 8.8 20:47:15 12° ESE 20:49:27 18° ENE 20:52:25 10° NNE visible
28 Jul 8.4 22:24:28 30° WSW 22:25:24 33° W 22:29:19 10° NNW visible
29 Jul 8.2 21:05:15 20° ESE 21:07:05 27° ENE 21:10:48 10° NNE visible
29 Jul 9.1 22:42:27 20° WSW 22:43:16 21° W 22:46:28 10° NW visible
30 Jul 7.5 21:23:14 31° ESE 21:24:44 44° ENE 21:28:53 10° N visible
30 Jul 9.7 23:00:26 12° WSW 23:01:11 13° W 23:02:59 10° WNW visible
31 Jul 7.0 21:41:13 46° SSE 21:42:24 73° ENE 21:46:45 10° N visible
01 Aug 7.2 21:59:13 51° SSW 22:00:08 68° W 22:04:28 10° NNW visible
02 Aug 9.0 20:40:01 11° E 20:42:01 15° ENE 20:44:32 10° NNE visible
02 Aug 8.0 22:17:12 37° WSW 22:17:53 40° W 22:22:00 10° NNW visible
03 Aug 8.4 20:58:00 18° ESE 20:59:38 23° ENE 21:03:06 10° NNE visible
03 Aug 8.8 22:35:12 24° WSW 22:35:43 25° W 22:39:17 10° NW visible
04 Aug 7.8 21:16:00 29° ESE 21:17:16 36° ENE 21:21:17 10° N visible
04 Aug 9.5 22:53:12 15° W 22:53:37 16° W 22:56:08 10° WNW visible
05 Aug 7.1 21:34:00 47° SE 21:34:56 59° ENE 21:39:14 10° N visible
06 Aug 7.0 21:52:00 64° S 21:52:38 83° WSW 21:57:00 10° NNW visible
